Home   Weather   Poole   Past weeks

Flag for United Kingdom Past Weather in Poole, England, United Kingdom — Yesterday and Last 2 Weeks

Now
43 °F

Fog.


Feels Like: 39 °F
Forecast: 40 / 51 °F
Wind: 6 mph from Northeast

Location: Bournemouth Airport

Current Time: Dec 5, 2016 at 10:41:16 am

Latest Report: Dec 5, 2016 at 10:20 am


Visibility: 2 mi

Pressure: 30.21 "Hg

Humidity: 100%

Dew Point: 43 °F

Location of PooleLocation

Past Weather in Poole — Graph

°F

Poole Temperature Yesterday

Maximum temperature yesterday: 45 °F (at 12:50 pm)
Minimum temperature yesterday: 32 °F (at 8:20 am)
Average temperature yesterday: 38 °F

High & Low Weather Summary for the Past Weeks

 TemperatureHumidityPressure
High55 °F (Nov 21, 9:20 am)100% (Nov 21, 5:50 am)30.60 "Hg (Nov 21, 5:50 am)
Low19 °F (Nov 30, 7:20 am)43% (Nov 28, 2:20 pm)29.03 "Hg (Nov 21, 11:20 am)
Average42 °F83%30.08 "Hg
* Reported Nov 20 9:20 am — Dec 5 9:20 am, Poole, Weather by CustomWeather, © 2016

Note: Actual official high and low records may vary slightly from our data, if they occured in-between our weather recording intervals... More about our weather records

Advertising

Poole Weather History for the Previous 24 Hours

Scroll right to see more
 ConditionsComfort  
Time TempWeatherWind HumidityBarometerVisibility
9:20 am
Mon, Dec 5
41 °FFog.1 mph93%30.21 "Hg1 mi
8:50 am39 °FFog.6 mph93%30.18 "Hg1 mi
8:20 am37 °FFog.10 mph93%30.18 "Hg1 mi
7:20 am30 °FIce fog.5 mph100%30.18 "Hg1 mi
6:50 am30 °FIce fog.3 mph100%30.18 "Hg1 mi
6:20 am30 °FIce fog.2 mph100%30.18 "Hg2 mi
5:50 am28 °FIce fog.2 mph100%30.18 "Hg2 mi
10:20 pm
Sun, Dec 4
32 °FClear.6 mph87%30.18 "HgN/A
9:50 pm34 °FPassing clouds.6 mph87%30.18 "HgN/A
9:20 pm37 °FPassing clouds.5 mph75%30.15 "HgN/A
8:50 pm37 °FPassing clouds.5 mph81%30.18 "HgN/A
8:20 pm37 °FPassing clouds.7 mph81%30.18 "HgN/A
7:50 pm39 °FOvercast.8 mph70%30.18 "HgN/A
7:20 pm39 °FOvercast.6 mph70%30.15 "HgN/A
6:50 pm39 °FPassing clouds.7 mph65%30.15 "HgN/A
6:20 pm37 °FPassing clouds.6 mph70%30.18 "HgN/A
5:50 pm34 °FPassing clouds.3 mph70%30.15 "HgN/A
5:20 pm34 °FClear.6 mph75%30.15 "Hg10 mi
4:50 pm37 °FClear.5 mph65%30.15 "Hg10 mi
4:20 pm37 °FClear.8 mph70%30.15 "Hg10 mi
3:50 pm41 °FSunny.8 mph61%30.12 "Hg10 mi
3:20 pm43 °FSunny.13 mph57%30.15 "Hg10 mi
2:50 pm43 °FSunny.12 mph61%30.12 "Hg10 mi
2:20 pm43 °FSunny.14 mph66%30.12 "Hg10 mi
1:50 pm45 °FSunny.12 mph61%30.12 "Hg10 mi
1:20 pm45 °FSunny.12 mph61%30.12 "Hg10 mi
12:50 pm45 °FSunny.12 mph61%30.12 "Hg10 mi
12:20 pm43 °FSunny.12 mph66%30.15 "Hg10 mi
11:50 am43 °FSunny.12 mph66%30.15 "Hg10 mi
11:20 am43 °FSunny.15 mph61%30.15 "Hg10 mi
10:50 am41 °FSunny.14 mph70%30.15 "Hg10 mi
10:20 am41 °FSunny.13 mph66%30.18 "Hg10 mi
Weather by CustomWeather, © 2016

See weather overviewHow to use our weather pages